TimeEDT,TemperatureF,Dew PointF,Humidity,Sea Level PressureIn,VisibilityMPH,Wind Direction,Wind SpeedMPH,Gust SpeedMPH,PrecipitationIn,Events,Conditions,WindDirDegrees,DateUTC
12:22 AM,64.4,62.6,94,29.67,8.0,Calm,Calm,-,0.00,Rain-Thunderstorm,Light Thunderstorms and Rain,0,2011-10-01 04:22:00
12:42 AM,64.4,62.6,94,29.67,2.5,SSE,3.5,-,0.06,Rain-Thunderstorm,Thunderstorms and Rain,150,2011-10-01 04:42:00
12:51 AM,64.4,62.6,94,29.66,3.0,ESE,3.5,-,0.08,Rain-Thunderstorm,Heavy Thunderstorms and Rain,110,2011-10-01 04:51:00
12:54 AM,64.9,62.1,90,29.66,3.0,Calm,Calm,-,0.11,Rain-Thunderstorm,Heavy Thunderstorms and Rain,0,2011-10-01 04:54:00
1:10 AM,64.4,62.6,94,29.67,5.0,SSW,4.6,-,0.03,Rain,Light Rain,200,2011-10-01 05:10:00
1:54 AM,63.0,59.0,87,29.68,7.0,South,9.2,-,0.13,Rain,Light Rain,180,2011-10-01 05:54:00
2:54 AM,64.9,61.0,87,29.66,1.5,Calm,Calm,-,0.05,Rain,Heavy Rain,0,2011-10-01 06:54:00
3:03 AM,64.4,60.8,88,29.66,3.0,SSW,3.5,-,0.05,Rain,Light Rain,200,2011-10-01 07:03:00
3:54 AM,64.0,61.0,90,29.65,10.0,East,4.6,-,0.11,,Overcast,80,2011-10-01 07:54:00
4:54 AM,64.9,62.1,90,29.63,8.0,North,3.5,-,N/A,,Overcast,360,2011-10-01 08:54:00
5:39 AM,64.4,62.6,94,29.63,6.0,East,6.9,-,N/A,,Overcast,90,2011-10-01 09:39:00
5:43 AM,64.4,62.6,94,29.63,6.0,East,6.9,-,0.00,Rain,Light Rain,80,2011-10-01 09:43:00
5:54 AM,64.0,62.1,93,29.63,5.0,East,5.8,-,0.00,Rain,Light Rain,80,2011-10-01 09:54:00
6:54 AM,64.0,62.1,93,29.63,6.0,NE,8.1,-,0.00,,Overcast,40,2011-10-01 10:54:00
7:20 AM,64.4,62.6,94,29.63,8.0,ENE,5.8,-,0.00,Rain,Light Rain,60,2011-10-01 11:20:00
7:46 AM,64.4,62.6,94,29.63,6.0,NE,4.6,-,0.00,Rain,Light Rain,40,2011-10-01 11:46:00
7:54 AM,64.0,62.1,93,29.63,6.0,ENE,5.8,-,0.00,Rain,Light Rain,60,2011-10-01 11:54:00
8:07 AM,64.4,62.6,94,29.60,3.0,ENE,11.5,-,0.03,Rain,Rain,70,2011-10-01 12:07:00
8:32 AM,64.4,62.6,94,29.57,1.2,ENE,15.0,-,0.05,Rain,Light Rain,60,2011-10-01 12:32:00
8:45 AM,64.4,62.6,94,29.59,7.0,NE,12.7,-,0.05,Rain,Light Rain,50,2011-10-01 12:45:00
8:54 AM,64.0,62.1,93,29.59,8.0,NE,16.1,-,0.05,Rain,Light Rain,40,2011-10-01 12:54:00
9:31 AM,64.4,62.6,94,29.60,2.0,NE,8.1,-,0.01,,Overcast,40,2011-10-01 13:31:00
9:37 AM,64.4,62.6,94,29.61,1.8,NNE,6.9,-,0.01,,Overcast,30,2011-10-01 13:37:00
9:54 AM,64.9,64.0,97,29.61,1.2,NE,6.9,-,0.01,,Overcast,40,2011-10-01 13:54:00
10:32 AM,64.4,64.4,100,29.61,0.8,NNE,5.8,-,N/A,,Overcast,30,2011-10-01 14:32:00
10:54 AM,64.9,64.0,97,29.62,0.8,NE,8.1,-,N/A,,Overcast,50,2011-10-01 14:54:00
11:12 AM,64.4,64.4,100,29.62,1.5,NE,5.8,-,N/A,,Overcast,50,2011-10-01 15:12:00
11:40 AM,64.4,64.4,100,29.62,2.5,NNE,6.9,-,N/A,,Overcast,30,2011-10-01 15:40:00
11:54 AM,66.0,64.0,93,29.62,3.0,NNE,6.9,-,N/A,,Overcast,30,2011-10-01 15:54:00
12:15 PM,66.2,64.4,94,29.61,5.0,NNE,9.2,-,N/A,,Overcast,30,2011-10-01 16:15:00
12:54 PM,66.9,64.0,90,29.61,7.0,NE,5.8,-,N/A,,Mostly Cloudy,40,2011-10-01 16:54:00
1:15 PM,66.2,64.4,94,29.60,8.0,ENE,5.8,-,N/A,,Overcast,70,2011-10-01 17:15:00
1:54 PM,66.0,64.0,93,29.60,7.0,ENE,6.9,-,N/A,,Overcast,70,2011-10-01 17:54:00
2:23 PM,66.2,64.4,94,29.60,0.5,East,6.9,-,N/A,,Overcast,80,2011-10-01 18:23:00
2:38 PM,66.2,64.4,94,29.60,0.5,ENE,5.8,-,N/A,,Overcast,70,2011-10-01 18:38:00
2:52 PM,66.2,64.4,94,29.60,1.5,East,4.6,-,N/A,,Mostly Cloudy,80,2011-10-01 18:52:00
2:54 PM,66.9,64.0,90,29.60,1.5,East,4.6,-,N/A,,Mostly Cloudy,80,2011-10-01 18:54:00
3:47 PM,69.8,64.4,83,29.61,1.5,Variable,3.5,-,N/A,,Mostly Cloudy,0,2011-10-01 19:47:00
3:54 PM,71.1,64.9,81,29.61,1.5,Variable,4.6,-,N/A,,Haze,0,2011-10-01 19:54:00
3:58 PM,71.6,64.4,78,29.61,3.0,Variable,5.8,-,N/A,,Haze,0,2011-10-01 19:58:00
4:54 PM,66.0,64.0,93,29.63,3.0,East,6.9,-,N/A,,Overcast,80,2011-10-01 20:54:00
5:40 PM,66.2,62.6,88,29.64,3.0,NE,8.1,-,N/A,,Overcast,50,2011-10-01 21:40:00
5:54 PM,66.0,64.0,93,29.64,3.0,ENE,10.4,-,N/A,,Overcast,60,2011-10-01 21:54:00
6:33 PM,66.2,64.4,94,29.66,3.0,NE,5.8,-,N/A,,Overcast,50,2011-10-01 22:33:00
6:54 PM,66.0,64.0,93,29.66,3.0,NE,8.1,-,N/A,,Overcast,50,2011-10-01 22:54:00
7:54 PM,64.9,63.0,93,29.69,3.0,NNE,11.5,-,N/A,,Overcast,30,2011-10-01 23:54:00
8:54 PM,64.9,63.0,93,29.72,3.0,ENE,13.8,-,N/A,,Overcast,70,2011-10-02 00:54:00
9:11 PM,64.4,64.4,100,29.73,3.0,NNE,4.6,-,N/A,,Overcast,30,2011-10-02 01:11:00
9:48 PM,62.6,59.0,88,29.73,3.0,WNW,10.4,-,N/A,,Overcast,300,2011-10-02 01:48:00
9:54 PM,62.1,59.0,90,29.73,3.0,WNW,10.4,-,N/A,,Overcast,290,2011-10-02 01:54:00
10:54 PM,59.0,57.0,93,29.74,3.0,NNW,10.4,-,N/A,,Overcast,330,2011-10-02 02:54:00
11:54 PM,57.0,55.0,93,29.76,3.0,NW,9.2,-,N/A,,Overcast,320,2011-10-02 03:54:00